Theta_e
304 306 309 312 310 310 311 312 307 307 308 305 299 300 303 304 304 305 304 304 304 303 303 304 300 304 298 302 302 303 302 299 300 302 302 302 301 301 302 295 295 294 294 301
304 305 305 308 312 311 311 313 312 308 309 301 299 302 303 304 304 304 304 304 304 303 303 304 303 303 303 302 302 302 301 299 301 304 302 301 303 303 303 300 299 298 299 302
304 305 306 307 310 311 313 315 306 311 308 305 302 304 305 303 305 304 305 304 305 304 304 304 303 303 303 302 303 303 302 300 301 305 306 303 303 302 304 303 297 298 300 299
304 304 306 307 309 311 313 313 307 309 304 305 305 304 304 306 305 305 305 304 303 304 304 304 304 303 304 303 303 302 301 301 302 302 302 302 303 303 302 304 302 301 304 299
304 304 304 306 308 310 311 312 311 309 307 307 306 305 304 306 305 304 304 305 305 303 304 304 305 303 303 303 302 301 300 303 302 302 303 303 303 303 304 303 304 303 304 304
305 305 304 305 306 309 310 310 310 311 306 307 306 306 306 306 306 306 306 305 304 304 303 305 305 305 304 303 301 300 300 300 303 303 302 302 306 305 304 303 303 304 304 305
306 306 305 305 306 307 309 309 310 312 308 306 307 308 307 306 306 308 307 305 304 306 306 305 304 304 303 302 302 302 300 301 302 302 301 308 308 305 304 304 304 303 303 303
307 307 307 306 307 309 309 309 309 310 306 308 309 308 307 307 307 306 307 306 306 306 306 304 305 305 304 302 300 300 301 301 303 302 298 304 308 303 303 304 305 303 303 304
307 307 307 307 307 308 308 309 309 309 309 305 310 309 308 305 304 305 306 305 304 305 303 304 309 308 308 305 301 299 298 299 300 301 303 308 307 303 303 305 306 305 304 303
306 307 307 307 307 307 307 307 307 308 309 309 310 308 307 308 307 305 304 304 303 304 301 305 305 307 306 307 304 301 301 300 303 303 306 304 303 304 305 307 308 307 307 308
305 306 307 306 307 307 306 306 306 306 306 307 307 309 308 308 308 305 305 305 303 300 303 303 304 304 305 305 303 301 302 302 302 303 304 304 303 303 305 306 307 308 308 308
305 306 306 306 306 306 306 306 305 305 305 305 306 305 306 308 308 308 307 306 305 304 301 300 302 305 303 303 305 299 304 303 302 302 303 304 304 306 308 306 306 307 307 307
304 306 306 306 305 305 305 306 305 305 303 304 304 306 306 305 305 308 308 306 307 307 306 304 302 305 301 304 302 302 301 303 302 303 304 303 305 306 306 307 307 306 307 307
305 304 304 305 304 304 304 305 306 304 303 301 304 304 304 305 305 305 307 307 306 306 306 305 302 304 304 303 304 302 304 304 305 304 306 306 307 307 307 306 306 306 306 305
304 304 305 306 306 306 305 305 306 303 302 300 302 303 304 304 304 305 306 306 306 306 305 304 305 305 305 305 303 307 307 307 307 307 306 306 306 306 306 305 305 304 304 304
302 303 303 302 302 303 302 301 303 303 299 300 301 301 302 303 303 303 305 306 305 305 305 305 306 305 306 306 307 306 307 307 307 306 306 305 305 304 304 304 304 303 303 303
297 297 298 298 298 296 299 300 302 302 301 301 301 301 301 302 302 302 303 302 304 304 304 303 304 303 304 303 307 306 305 305 305 305 305 304 304 303 302 302 301 300 300 299
297 296 296 296 296 296 296 298 300 300 299 300 300 300 300 301 301 301 301 302 302 303 303 302 301 303 303 304 304 305 304 304 304 304 304 303 301 300 299 298 297 297 296 296
295 295 295 295 295 295 295 296 296 296 296 297 297 298 297 299 300 300 299 300 299 300 299 299 301 302 303 302 302 303 303 303 302 301 300 299 297 295 295 296 296 295 294 294
295 294 294 294 294 294 294 296 296 296 296 295 296 298 297 299 299 299 299 298 299 299 298 299 300 301 301 301 300 300 299 298 298 297 294 294 294 294 294 293 295 295 294 293
294 294 294 294 295 296 297 296 296 297 297 295 296 296 297 298 298 299 298 299 297 295 294 299 297 298 296 296 296 294 294 295 294 294 294 294 293 292 292 292 293 293 294 293
294 294 293 294 295 295 295 296 296 296 295 296 298 297 296 297 297 299 298 300 298 297 296 299 294 293 293 294 294 295 294 294 293 293 292 292 292 293 293 292 292 292 291 291
293 293 294 294 294 295 295 286 287 290 297 298 298 298 298 298 297 298 299 299 298 296 298 297 293 293 294 295 295 295 294 294 293 293 293 292 292 292 293 293 292 291 291 291
293 293 293 293 289 289 288 287 288 294 296 297 296 296 296 296 297 297 298 295 295 295 293 292 294 295 295 296 296 295 294 294 294 294 294 293 292 292 292 292 292 292 291 291
292 293 293 291 292 292 294 293 294 295 295 295 295 294 294 294 294 288 291 288 290 294 295 296 296 295 295 295 295 294 292 291 292 292 292 291 291 291 292 292 292 292 292 291
292 292 292 292 289 291 294 294 294 294 295 294 293 291 288 291 286 287 289 282 285 288 286 294 292 292 292 291 290 290 290 290 290 290 290 291 291 291 292 291 291 291 291 291
291 292 292 291 291 292 292 293 293 293 293 291 290 291 290 287 284 281 281 284 289 292 292 292 292 292 291 290 290 289 290 290 290 290 290 290 291 291 291 291 290 290 291 291
Wind_Speed
14 15 15 12 5 3 2 3 3 4 2 3 4 3 4 5 4 2 1 2 1 3 3 2 1 2 6 4 4 3 1 4 4 7 2 4 4 6 5 4 5 1 3 7
13 14 14 13 10 4 1 2 1 7 2 3 2 1 2 2 3 3 3 3 2 2 4 2 4 4 2 7 4 4 4 1 4 3 3 3 5 5 4 4 3 6 5 6
13 13 13 13 11 6 2 1 2 3 4 6 7 4 1 1 1 2 2 1 1 1 1 1 3 3 2 5 3 4 2 2 5 5 4 4 4 5 7 5 3 3 8 8
10 11 12 12 11 7 3 1 2 3 1 2 3 3 6 4 2 2 2 1 4 4 3 1 2 2 1 1 4 3 4 4 4 7 11 8 14 10 9 12 9 7 9 10
10 10 10 10 10 7 3 0 1 2 4 5 3 1 6 7 4 7 3 3 3 5 4 6 5 5 4 5 1 4 1 3 4 5 6 5 7 10 14 17 19 17 21 27
8 10 10 10 10 7 3 0 3 2 1 2 4 4 6 6 7 8 5 9 4 5 8 9 7 7 4 6 9 7 4 2 2 5 5 9 7 8 11 5 4 13 12 16
7 7 8 8 8 7 5 2 1 2 3 3 4 3 5 7 8 5 6 10 6 4 3 3 4 4 5 9 10 11 6 4 3 4 6 3 4 3 7 12 6 13 12 13
5 6 7 6 5 6 5 4 3 2 2 5 3 7 4 4 4 5 7 8 5 6 1 2 3 2 1 2 2 6 4 4 2 2 2 8 5 2 5 6 6 8 14 15
5 5 5 6 5 4 5 5 3 3 1 6 2 5 9 5 4 2 4 4 7 6 2 2 5 5 4 4 2 4 4 2 3 2 3 6 4 2 4 3 5 3 8 10
7 6 4 5 6 5 5 6 7 4 5 5 8 6 5 8 5 3 3 5 7 9 3 3 4 5 4 5 7 6 4 2 11 7 5 8 11 11 4 2 7 8 8 9
12 12 12 9 8 7 7 6 9 8 6 13 12 12 9 7 8 5 7 3 3 2 4 4 4 4 5 2 4 7 9 8 5 4 6 10 12 6 7 5 4 10 12 10
15 15 15 14 13 13 13 11 11 13 12 12 17 22 21 22 16 11 17 6 5 11 2 2 1 3 2 4 4 2 3 7 6 12 8 5 18 8 12 11 11 14 21 27
19 19 17 17 17 18 18 16 15 17 13 23 21 14 12 22 31 23 12 10 14 10 11 6 3 5 4 4 6 5 5 13 4 0 8 18 19 20 24 24 21 25 27 25
22 22 22 21 20 21 21 22 18 16 8 5 9 9 10 11 15 23 32 25 12 9 9 9 3 3 8 4 4 4 6 4 4 7 16 24 26 21 17 32 36 33 29 25
24 23 23 24 23 24 24 24 22 16 11 5 14 27 30 31 29 21 23 29 31 23 7 6 4 4 4 8 3 11 14 18 13 17 26 24 28 31 30 29 32 38 36 35
23 27 26 21 22 22 18 9 16 21 21 7 3 9 12 14 12 13 28 23 15 17 7 7 8 8 8 4 7 10 22 27 31 33 36 31 32 32 35 32 29 28 21 19
11 13 14 14 15 15 17 7 7 9 17 6 5 5 5 5 5 13 16 15 13 14 6 7 7 8 11 3 15 14 22 28 32 35 39 38 34 23 17 10 9 10 9 8
14 13 10 13 15 18 24 27 18 15 8 7 3 4 5 7 5 4 6 6 11 8 7 4 4 3 6 6 14 18 25 29 28 26 23 24 14 9 4 2 4 3 6 9
12 11 11 12 11 9 14 10 22 24 12 4 5 3 4 6 6 4 5 5 3 5 4 5 8 3 7 6 9 13 14 11 12 17 16 5 3 7 7 8 14 16 12 11
13 11 4 4 4 7 11 7 6 10 11 10 6 8 3 9 9 6 4 6 3 3 5 8 4 7 24 14 18 23 18 13 7 10 15 15 17 16 17 15 16 16 17 19
11 4 5 5 10 7 5 6 7 7 5 8 7 15 5 9 3 4 9 3 3 3 4 6 3 4 2 3 12 18 17 17 19 15 13 13 17 17 22 24 23 25 25 26
7 10 13 9 5 5 4 3 5 4 4 5 5 7 13 8 9 7 6 4 5 6 8 3 3 2 13 21 22 17 13 12 12 14 16 20 22 22 21 23 25 26 28 32
15 9 6 4 5 4 4 4 4 2 3 3 4 3 6 8 11 7 4 6 4 9 3 3 1 2 15 14 8 13 16 15 16 21 18 23 26 28 28 29 30 31 32 36
8 7 5 5 3 4 4 4 3 3 4 6 6 4 6 3 2 1 4 3 0 3 1 4 2 12 14 11 12 18 25 27 28 28 27 36 34 34 34 34 36 35 37 38
10 6 5 6 10 8 5 10 8 9 6 4 2 0 2 1 3 1 2 6 3 2 2 2 9 7 10 14 20 26 31 32 31 32 34 37 37 37 36 36 38 38 39 39
6 7 4 7 9 10 13 15 18 15 12 6 2 2 1 4 3 2 6 4 5 4 3 12 14 22 25 33 36 37 37 38 39 38 39 39 39 39 39 40 41 41 43 43
5 6 12 9 10 16 23 24 23 12 8 1 2 5 8 1 1 3 4 5 6 22 29 33 33 36 41 40 37 36 37 38 37 38 40 41 41 41 42 45 47 46 44 43
Wind_Direction
26 25 31 34 42 33 40 52 51 2 349 29 54 109 152 150 182 176 191 156 139 175 162 151 167 228 216 182 170 172 171 149 237 214 205 193 177 194 162 126 258 185 152 273
24 21 18 20 22 30 19 52 77 31 47 104 33 159 83 162 145 214 193 193 219 185 180 182 198 210 180 179 157 166 178 269 340 341 353 332 229 201 173 126 107 206 142 261
8 13 13 13 11 11 55 106 28 36 54 82 129 142 161 164 204 186 180 174 115 93 225 271 214 194 198 187 166 147 143 203 206 207 218 143 217 200 195 159 143 197 232 290
5 5 5 6 6 5 352 27 133 126 279 360 120 131 156 138 210 236 199 299 215 173 190 230 240 152 122 189 197 162 145 233 210 255 256 248 256 249 199 210 206 198 259 236
354 358 359 359 360 351 323 255 169 133 130 139 128 336 212 169 164 156 229 212 190 202 212 198 209 159 190 205 163 170 175 278 352 280 273 251 265 246 224 224 233 243 261 271
354 352 353 354 357 357 329 72 147 167 185 148 120 208 182 210 167 203 202 192 157 204 232 245 253 230 214 203 159 185 167 192 25 269 334 312 291 243 195 209 211 216 237 246
353 349 348 354 358 2 4 327 243 203 230 167 216 210 190 186 202 181 194 191 166 207 176 280 265 255 235 192 188 172 152 163 173 274 331 319 241 254 180 210 218 215 255 258
350 350 351 347 353 359 355 345 290 261 265 223 209 191 198 196 217 228 225 211 209 179 176 65 359 335 359 157 354 209 175 148 230 227 249 295 284 167 155 181 286 221 235 260
331 334 341 350 356 352 340 332 330 289 259 240 229 182 192 178 199 305 222 219 188 189 104 113 206 223 218 214 190 14 109 102 151 150 210 241 256 195 149 112 280 251 235 264
294 305 311 329 333 338 342 333 324 297 274 259 214 213 200 183 174 163 174 188 189 187 131 176 201 243 182 195 182 172 154 199 215 210 252 275 256 217 100 129 252 186 185 187
281 295 294 298 306 314 315 315 313 319 276 275 255 247 232 213 196 155 151 112 206 103 180 176 215 207 227 185 167 178 171 166 195 179 224 266 195 93 170 233 235 228 236 265
273 274 277 283 295 299 303 307 309 304 287 273 279 273 257 247 247 228 182 186 175 197 134 245 208 223 204 188 239 93 239 198 185 191 211 250 190 211 264 281 291 295 287 302
276 279 277 268 278 283 285 289 299 299 298 298 275 268 259 248 236 233 226 221 212 208 213 192 213 229 142 197 231 202 238 214 225 102 218 250 269 280 282 288 303 313 308 303
264 266 271 275 275 273 280 282 285 282 277 265 282 258 264 257 251 234 229 234 221 217 215 222 199 197 198 224 254 197 211 163 244 263 282 299 289 287 307 308 309 308 306 302
264 264 264 260 261 266 272 274 273 267 248 274 290 284 281 275 263 245 235 236 240 241 229 211 229 238 242 242 232 248 235 255 261 269 280 284 287 295 303 306 305 303 300 301
261 261 256 262 264 261 261 271 252 248 233 262 272 279 279 273 266 244 235 234 236 228 216 219 227 211 198 248 258 252 251 254 258 261 276 282 290 297 301 302 301 307 308 305
279 278 266 248 240 241 228 223 174 188 195 233 268 259 256 280 254 230 230 226 223 223 236 230 226 202 207 242 255 255 280 285 275 274 286 291 293 303 306 301 306 310 306 307
267 260 275 269 262 247 240 232 221 210 216 214 239 253 263 204 211 221 197 201 204 222 231 215 195 220 211 254 265 266 267 272 277 282 290 292 288 254 296 262 258 309 344 340
296 289 275 279 261 254 271 257 243 244 224 237 227 196 225 192 189 186 186 203 221 230 238 215 174 185 225 226 256 270 283 286 298 307 299 257 97 60 41 21 12 351 336 327
285 285 274 248 236 254 240 243 219 211 212 222 242 207 239 177 178 195 193 197 227 226 222 174 216 252 257 275 279 285 299 315 317 147 69 39 10 350 343 332 309 307 313 312
279 230 236 259 264 269 240 235 204 206 224 210 235 218 210 211 155 194 208 198 190 219 238 187 225 253 260 66 103 105 92 82 72 34 358 345 336 329 320 312 307 303 300 298
258 274 284 267 231 230 237 246 284 201 236 212 210 226 211 217 212 201 210 205 183 236 153 219 245 270 131 119 109 90 47 23 351 342 324 312 307 300 301 305 301 297 300 298
257 220 201 232 206 228 200 231 270 279 266 242 231 226 193 181 191 210 211 215 232 132 192 222 206 157 152 137 136 348 329 323 305 301 308 319 311 305 297 297 299 301 300 296
228 213 205 196 235 237 199 190 212 285 322 10 33 21 2 330 245 287 248 264 20 285 169 222 217 176 191 219 273 298 309 312 309 299 298 311 311 310 305 298 301 302 303 301
224 210 233 200 207 225 249 231 243 248 242 258 339 98 251 257 272 237 324 352 288 246 236 169 205 239 269 279 288 297 304 310 308 307 301 310 312 308 302 298 300 298 297 298
240 234 211 217 184 214 212 222 233 231 229 177 221 100 14 256 189 96 224 129 228 258 227 289 302 311 307 309 311 313 312 312 312 313 311 308 305 304 304 305 303 301 300 300
244 236 232 241 252 219 222 232 243 241 178 152 171 211 221 116 6 284 186 207 239 267 284 291 290 292 299 305 307 306 306 307 306 303 302 304 304 302 301 299 299 299 301 301